"Pseudo-MPEC" for RdSH348

Created 2024 Jun 24 12:22:09 UT using Find_Orb

Click here for an explanation of pseudo-MPECs

 
 Astrometry: 
     RdSH348*KB2024 06 035RAstrometryEr]ow\cdTR_Udredacted;6clickS*'g+s^uhBdsY89
     RdSH348 KB2024 06 03rlhere-DGY'pV=YAK1forPqZZRG@%`omexplanation(YATKCaJDY89
     RdSH348 KB2024 06 03AQ;QItrt`S!6J5pV66\P_O3pgDm)n8JyS!'NQg',#+ANa1wb$MuvY89

Station data:
(Y89) Proxima Centauri Observatory, Valdin  (N42.222443 W6.988110)  Spain.

Orbital elements:  RdSH348
   Perihelion 2024 Jul 16.64981 +/- 61.8 TT = 15:35:43 (JD 2460508.14981)
Epoch 2024 Jun  3.0 TT = JDT 2460464.5   Earth MOID: 0.5765      AutoNEOCP
M 350.25965735 +/- 19               (J2000 ecliptic)
n   0.22314743 +/- 0.232            Peri.   51.68309 +/- 70
a   2.69199834 +/- 1.87             Node   222.59252 +/- 38
e   0.4198017 +/- 0.249             Incl.   11.36500 +/- 8
P   4.42                   H 19.44  G  0.15   U 11.8  SR
q 1.56189276 +/- 0.57    Q 3.82210391 +/- 86.8
From 3 observations 2024 June 3 (42.8 min); mean residual 0".76
Residuals in arcseconds: 
240603 Y89  .34-  .68+    240603 Y89  .69+  1.4-    240603 Y89  .34-  .68+    

Ephemerides (geocentric):
Date (UTC) HH   RA             Dec           delta  r     elong  mag " sig PA
---- --------  ------------   ------------  ------ ------ -----  --- --------
2024 06 24 12  16 02 40.460   -02 53 22.51  .64229 1.5743 142.3 20.6  40d  92
2024 06 24 13  16 02 41.105   -02 53 02.79  .64241 1.5743 142.2 20.6  40d  92
2024 06 24 14  16 02 41.753   -02 52 43.11  .64253 1.5742 142.2 20.6  40d  92
2024 06 24 15  16 02 42.405   -02 52 23.49  .64265 1.5742 142.2 20.6  40d  92
2024 06 24 16  16 02 43.060   -02 52 03.91  .64277 1.5741 142.1 20.6  40d  92
2024 06 24 17  16 02 43.719   -02 51 44.38  .64289 1.5741 142.1 20.6  40d  92
2024 06 24 18  16 02 44.381   -02 51 24.90  .64301 1.5740 142.1 20.6  40d  92
2024 06 24 19  16 02 45.048   -02 51 05.47  .64313 1.5740 142.0 20.6  40d  92
2024 06 24 20  16 02 45.717   -02 50 46.09  .64325 1.5739 142.0 20.6  40d  92
2024 06 24 21  16 02 46.390   -02 50 26.75  .64338 1.5739 142.0 20.6  40d  92
2024 06 24 22  16 02 47.067   -02 50 07.47  .64350 1.5738 141.9 20.6  40d  92
2024 06 24 23  16 02 47.748   -02 49 48.23  .64362 1.5738 141.9 20.6  40d  92
2024 06 25 00  16 02 48.432   -02 49 29.04  .64374 1.5737 141.9 20.6  40d  92
2024 06 25 01  16 02 49.119   -02 49 09.90  .64386 1.5737 141.8 20.6  40d  92
2024 06 25 02  16 02 49.810   -02 48 50.81  .64398 1.5737 141.8 20.6  40d  92
2024 06 25 03  16 02 50.505   -02 48 31.77  .64410 1.5736 141.7 20.6  40d  92
2024 06 25 04  16 02 51.203   -02 48 12.78  .64423 1.5736 141.7 20.6  40d  92
2024 06 25 05  16 02 51.905   -02 47 53.83  .64435 1.5735 141.7 20.6  40d  92
2024 06 25 06  16 02 52.611   -02 47 34.94  .64447 1.5735 141.6 20.6  40d  92
2024 06 25 07  16 02 53.320   -02 47 16.09  .64460 1.5734 141.6 20.6  40d  92
2024 06 25 08  16 02 54.033   -02 46 57.29  .64472 1.5734 141.6 20.6  40d  92
2024 06 25 09  16 02 54.749   -02 46 38.54  .64484 1.5733 141.5 20.6  40d  92
2024 06 25 10  16 02 55.469   -02 46 19.84  .64497 1.5733 141.5 20.6  40d  91
2024 06 25 11  16 02 56.192   -02 46 01.18  .64509 1.5733 141.5 20.6  40d  91
2024 06 25 12  16 02 56.919   -02 45 42.58  .64521 1.5732 141.4 20.6  40d  91
2024 06 25 13  16 02 57.650   -02 45 24.02  .64534 1.5732 141.4 20.6  40d  91
2024 06 25 14  16 02 58.384   -02 45 05.51  .64546 1.5731 141.4 20.6  40d  91
2024 06 25 15  16 02 59.122   -02 44 47.05  .64559 1.5731 141.3 20.6  40d  91
2024 06 25 16  16 02 59.863   -02 44 28.64  .64571 1.5730 141.3 20.6  40d  91
2024 06 25 17  16 03 00.608   -02 44 10.28  .64584 1.5730 141.3 20.6  40d  91
2024 06 25 18  16 03 01.357   -02 43 51.97  .64596 1.5729 141.2 20.6  40d  91
2024 06 25 19  16 03 02.109   -02 43 33.70  .64609 1.5729 141.2 20.6  40d  91
2024 06 25 20  16 03 02.865   -02 43 15.48  .64621 1.5729 141.1 20.6  40d  91
2024 06 25 21  16 03 03.625   -02 42 57.32  .64634 1.5728 141.1 20.6  40d  91
2024 06 25 22  16 03 04.388   -02 42 39.20  .64646 1.5728 141.1 20.6  40d  91
2024 06 25 23  16 03 05.155   -02 42 21.12  .64659 1.5727 141.0 20.6  40d  91
2024 06 26 00  16 03 05.925   -02 42 03.10  .64672 1.5727 141.0 20.6  40d  91
2024 06 26 01  16 03 06.699   -02 41 45.13  .64684 1.5726 141.0 20.6  40d  91
2024 06 26 02  16 03 07.476   -02 41 27.20  .64697 1.5726 140.9 20.6  40d  91
2024 06 26 03  16 03 08.257   -02 41 09.32  .64710 1.5726 140.9 20.6  40d  91
2024 06 26 04  16 03 09.042   -02 40 51.49  .64722 1.5725 140.9 20.6  40d  91
2024 06 26 05  16 03 09.831   -02 40 33.71  .64735 1.5725 140.8 20.6  40d  91
2024 06 26 06  16 03 10.623   -02 40 15.98  .64748 1.5724 140.8 20.6  40d  91
2024 06 26 07  16 03 11.418   -02 39 58.29  .64761 1.5724 140.8 20.6  40d  91
2024 06 26 08  16 03 12.218   -02 39 40.66  .64774 1.5723 140.7 20.6  40d  91
2024 06 26 09  16 03 13.020   -02 39 23.07  .64786 1.5723 140.7 20.6  40d  91
2024 06 26 10  16 03 13.827   -02 39 05.53  .64799 1.5723 140.7 20.6  40d  91
2024 06 26 11  16 03 14.637   -02 38 48.04  .64812 1.5722 140.6 20.6  40d  91